This demonstration page uses our WeatherBlox Daily Observations layout. Learn more.

Left ArrowRight Arrow

Hourly Observations for August 9, 2021

Temp ( °F °C ) Dew Point ( °F °C ) Humidity (%) Winds ( mph kmh ) Pressure ( in mb ) Visibility ( mi km ) Precip ( " mm )
12:53 am 00:53 Hazy 74 23.3 49 9.4 41 41 NNW 3 6 29.80 1009 6 10 0.00 0.00
1:53 am 01:53 Hazy 72 22.2 46 7.8 40 40 Calm 29.80 1009 6 10 0.00 0.00
2:53 am 02:53 Clear with Smoke 71 21.7 45 7.2 39 39 Calm 29.80 1009 7 11 0.00 0.00
3:53 am 03:53 Clear with Smoke 69 20.6 45 7.2 42 42 Calm 29.81 1009 7 11 0.00 0.00
4:53 am 04:53 Clear with Smoke 68 20 45 7.2 44 44 Calm 29.81 1009 7 11 0.00 0.00
5:53 am 05:53 Clear with Smoke 67 19.4 45 7.2 45 45 Calm 29.82 1010 7 11 0.00 0.00
6:43 am 06:43 Hazy 66 18.9 48 8.9 52 52 Calm 29.85 1011 2 3 0.00 0.00
6:53 am 06:53 Hazy 67 19.4 48 8.9 51 51 Calm 29.84 1010 2 3 0.00 0.00
7:53 am 07:53 Hazy 71 21.7 48 8.9 44 44 Calm 29.85 1011 3 5 0.00 0.00
8:53 am 08:53 Hazy 78 25.6 44 6.7 30 30 Calm 29.85 1011 6 10 0.00 0.00
9:53 am 09:53 Hazy 84 28.9 43 6.1 24 24 Calm 29.84 1010 6 10 0.00 0.00
10:53 am 10:53 Hazy 88 31.1 42 5.6 20 20 SE 3 6 29.83 1010 6 10 0.00 0.00
11:53 am 11:53 Hazy 92 33.3 44 6.7 19 19 Calm 29.82 1010 6 10 0.00 0.00
12:53 pm 12:53 Sunny with Smoke 95 35 46 7.8 19 19 VRB 5 7 29.80 1009 7 11 0.00 0.00
1:53 pm 13:53 Sunny with Smoke 98 36.7 41 5 14 14 S 7 11 29.78 1009 8 13 0.00 0.00
2:53 pm 14:53 Sunny with Smoke 100 37.8 41 5 13 13 VRB 6 9 29.77 1008 9 14 0.00 0.00
3:53 pm 15:53 Sunny with Smoke 102 38.9 42 5.6 13 13 SSE 8 13 29.75 1007 10 16 0.00 0.00
4:53 pm 16:53 Sunny with Smoke 102 38.9 40 4.4 12 12 S 10 17 29.73 1007 10 16 0.00 0.00
5:53 pm 17:53 Sunny with Smoke 102 38.9 36 2.2 10 10 S 9 15 29.73 1007 10 16 0.00 0.00
6:53 pm 18:53 Sunny with Smoke 100 37.8 40 4.4 13 13 SSE 8 13 29.73 1007 10 16 0.00 0.00
7:53 pm 19:53 Sunny with Smoke 94 34.4 47 8.3 20 20 SSE 8 13 29.74 1007 10 16 0.00 0.00
8:53 pm 20:53 Clear with Smoke 88 31.1 52 11.1 29 29 SSE 5 7 29.76 1008 10 16 0.00 0.00
9:53 pm 21:53 Clear with Smoke 85 29.4 52 11.1 32 32 SSE 5 7 29.78 1009 10 16 0.00 0.00
10:53 pm 22:53 Clear with Smoke 81 27.2 52 11.1 37 37 Calm 29.80 1009 10 16 0.00 0.00
11:53 pm 23:53 Clear with Smoke 80 26.7 51 10.6 37 37 Calm 29.82 1010 10 16 0.00 0.00

Powered by AerisWeather